[[{"header":{"parameterUnit":"m.s-1","parameterCategory":1,"la1":30.2991,"la2":30.254,"lo1":-89.0895,"lo2":-89.0444,"dy":0.0017,"dx":0.0017,"nx":28,"ny":28,"refTime":"2024-03-01T03:00:00:Z","depth":0,"parameterNumber":2,"parameterNumberName":"U-component_of_WINDS"},"data":[0,0,0,0,0,0,0,0,0,0,0,0,0,0,0,0,0,0,0,0,0,0,0,0,0,0,0,0,0,0,0,0,0,0,0,0,0,0,0,0,0,0,0,0,0,0,0,0,0,0,0,0,0,0,0,0,0,0,-1.626,-1.6261,0,-1.6345,-1.6346,-1.6347,-1.637,-1.6369,-1.6369,-1.6368,-1.6457,-1.646,-1.6462,0,0,0,0,0,0,0,0,0,0,0,0,0,-1.612,-1.6123,-1.626,-1.6261,-1.6262,-1.6345,-1.6346,-1.6347,-1.637,-1.6369,-1.6368,-1.6368,-1.6456,-1.6459,-1.6463,0,0,0,0,0,0,0,0,0,0,0,0,0,-1.6191,-1.6124,-1.626,-1.6283,-1.6286,-1.6345,-1.6346,-1.6348,-1.637,-1.6369,-1.6368,-1.6367,-1.6455,-1.6459,-1.6463,-1.6505,0,0,-1.6476,-1.6478,0,0,0,0,0,0,0,0,-1.6187,-1.6196,-1.6279,-1.6282,-1.6285,-1.6346,-1.6329,-1.64,-1.637,-1.6338,-1.6368,-1.6367,-1.6421,-1.6428,-1.6445,-1.6509,-1.6513,-1.6477,-1.6479,-1.6481,-1.6482,0,0,0,0,0,0,0,-1.6182,-1.6192,-1.6294,-1.628,-1.6284,-1.6291,-1.63,-1.6343,-1.6383,-1.6341,-1.6343,-1.6352,-1.6422,-1.6441,-1.6448,-1.6514,-1.6476,-1.648,-1.6483,-1.6484,-1.6618,-1.6619,0,0,0,0,0,0,-1.6173,-1.6188,-1.6291,-1.6296,-1.6233,-1.6294,-1.6304,-1.6327,-1.6382,-1.639,-1.6353,-1.6353,-1.6434,-1.6443,-1.6451,-1.6504,-1.6481,-1.6485,-1.6487,-1.6617,-1.6618,-1.6619,0,0,0,0,0,0,-1.6169,-1.6182,-1.6288,-1.6243,-1.6257,-1.6297,-1.6323,-1.6329,-1.6348,-1.6391,-1.6399,-1.6365,-1.6434,-1.6445,-1.6491,-1.6507,-1.6487,-1.6491,-1.6616,-1.6617,-1.6619,-1.6609,0,0,0,0,0,0,-1.6165,-1.618,-1.6196,-1.6243,-1.6259,-1.6326,-1.6324,-1.6332,-1.6355,-1.6356,-1.6404,-1.6412,-1.6434,-1.6485,-1.6496,-1.6513,-1.6494,-1.6614,-1.6616,-1.6618,-1.6608,-1.661,-1.6612,0,0,0,0,0,-1.616,-1.619,-1.6196,-1.6209,-1.6279,-1.6327,-1.6336,-1.6361,-1.6356,-1.6373,-1.6401,-1.641,-1.6504,-1.649,-1.6502,-1.652,-1.6614,-1.6616,-1.6618,-1.6608,-1.661,-1.6612,0,0,0,0,0,0,-1.6144,-1.6196,-1.6204,-1.625,-1.6284,-1.633,-1.6352,-1.6362,-1.6399,-1.6398,-1.6428,-1.6439,-1.6483,-1.6507,-1.649,-1.6564,-1.6559,-1.6564,-1.6547,-1.6549,-1.6551,-1.6544,-1.6498,0,0,0,0,0,-1.6145,-1.6179,-1.6224,-1.626,-1.6276,-1.6311,-1.6333,-1.6349,-1.6385,-1.64,-1.6431,-1.6467,-1.6505,-1.6529,-1.6565,-1.6613,-1.6624,-1.6631,-1.6633,-1.6634,-1.6638,-1.6665,-1.6669,-1.6626,-1.6626,-1.6626,0,0,-1.6149,-1.6182,-1.6201,-1.6257,-1.6285,-1.632,-1.6323,-1.6359,-1.6386,-1.6406,-1.6451,-1.6476,-1.6518,-1.6565,-1.6587,-1.6586,-1.6652,-1.6637,-1.6638,-1.6641,-1.6668,-1.6672,-1.6675,-1.6628,-1.6628,-1.6627,0,0,-1.6174,-1.6202,-1.6235,-1.6263,-1.6306,-1.6329,-1.6337,-1.6383,-1.6399,-1.6446,-1.6462,-1.6494,-1.6558,-1.6588,-1.6611,-1.6648,-1.6658,-1.666,-1.6668,-1.6694,-1.6698,-1.6701,-1.6714,-1.6718,-1.6663,-1.6663,-1.6663,0,-1.6173,-1.6225,-1.6251,-1.6287,-1.6311,-1.6331,-1.6365,-1.6392,-1.6444,-1.6461,-1.6459,-1.654,-1.657,-1.6624,-1.6633,-1.6652,-1.6662,-1.6653,-1.6695,-1.6699,-1.6702,-1.6715,-1.672,-1.6663,-1.6663,-1.6663,-1.6663,0,-1.6222,-1.6258,-1.628,-1.633,-1.6357,-1.6392,-1.6424,-1.6449,-1.6463,-1.6487,-1.6535,-1.6572,-1.6616,-1.6631,-1.6646,-1.6688,-1.6686,-1.6689,-1.6684,-1.6705,-1.6718,-1.6723,-1.6663,-1.6663,-1.6663,-1.6663,0,0,-1.6237,-1.6301,-1.6309,-1.6332,-1.6381,-1.641,-1.6447,-1.649,-1.651,-1.6547,-1.6579,-1.6633,-1.6637,-1.6663,-1.6682,-1.6705,-1.6732,-1.6706,-1.6707,-1.6709,-1.6781,-1.6778,-1.6783,-1.674,-1.6741,-1.6742,-1.6778,0,-1.6267,-1.6331,-1.6357,-1.641,-1.6444,-1.6464,-1.6496,-1.653,-1.6554,-1.6588,-1.6615,-1.6652,-1.6654,-1.6671,-1.6695,-1.6724,-1.6747,-1.6722,-1.677,-1.6771,-1.6757,-1.679,-1.6786,-1.6818,-1.6783,-1.6784,-1.6784,0,-1.631,-1.6346,-1.6402,-1.6448,-1.6463,-1.6491,-1.6533,-1.6565,-1.6605,-1.6621,-1.6651,-1.6668,-1.6708,-1.6702,-1.6759,-1.6741,-1.6763,-1.678,-1.6782,-1.6787,-1.6778,-1.6794,-1.6829,-1.6833,-1.6793,-1.6792,-1.6791,0,-1.6314,-1.6377,-1.6419,-1.6438,-1.6493,-1.6512,-1.6536,-1.6575,-1.66,-1.6637,-1.6654,-1.6696,-1.6719,-1.6752,-1.6781,-1.6774,-1.6835,-1.6831,-1.6849,-1.6849,-1.686,-1.6859,-1.6897,-1.6876,-1.6876,-1.6875,-1.6875,0,-1.6345,-1.6378,-1.6422,-1.6447,-1.6486,-1.6516,-1.6553,-1.6579,-1.6614,-1.6645,-1.6666,-1.6696,-1.6733,-1.6767,-1.6791,-1.6834,-1.6844,-1.6859,-1.6864,-1.6856,-1.6854,-1.687,-1.6868,-1.6877,-1.6876,-1.6876,-1.6876,0,-1.6355,-1.6386,-1.6433,-1.6481,-1.6493,-1.652,-1.6561,-1.6588,-1.6613,-1.6653,-1.6664,-1.6704,-1.6746,-1.6779,-1.6834,-1.6849,-1.6895,-1.6902,-1.6881,-1.6884,-1.69,-1.6898,-1.6949,-1.6958,-1.6931,-1.6931,-1.6932,0,-1.6372,-1.6398,-1.6449,-1.6471,-1.6494,-1.653,-1.6556,-1.6587,-1.6613,-1.6661,-1.6681,-1.6725,-1.6761,-1.6828,-1.6862,-1.6905,-1.6912,-1.6927,-1.6918,-1.691,-1.6912,-1.6909,-1.6912,-1.6928,-1.6928,-1.6928,-1.6928,0,-1.6398,-1.6412,-1.6447,-1.6489,-1.6518,-1.6552,-1.6587,-1.6604,-1.6642,-1.667,-1.6713,-1.6741,-1.6797,-1.684,-1.6887,-1.6912,-1.6927,-1.6931,-1.6937,-1.6929,-1.6916,-1.6922,-1.6883,-1.6929,-1.6929,-1.6929,-1.6929,-1.6929,-1.6412,-1.6436,-1.6476,-1.6515,-1.6544,-1.6576,-1.6603,-1.6632,-1.6668,-1.6715,-1.6732,-1.6776,-1.6817,-1.6881,-1.6907,-1.6943,-1.6944,-1.6953,-1.6955,-1.6957,-1.6956,-1.6911,-1.6952,-1.6952,-1.6952,-1.6952,-1.6952,0,-1.6439,-1.6466,-1.6501,-1.6548,-1.6579,-1.659,-1.6629,-1.6655,-1.6693,-1.673,-1.6765,-1.6815,-1.6857,-1.6896,-1.694,-1.6961,-1.6969,-1.6972,-1.697,-1.6976,-1.6953,-1.6943,-1.6965,-1.6965,-1.6965,-1.6965,-1.6965,-1.6965,-1.6457,-1.6498,-1.6517,-1.6574,-1.6601,-1.6644,-1.6665,-1.6695,-1.6724,-1.6779,-1.6814,-1.6838,-1.6876,-1.6924,-1.6963,-1.6974,-1.6989,-1.699,-1.7002,-1.6979,-1.6978,-1.6976,-1.6966,-1.6993,-1.6993,-1.7022,-1.7022,-1.7022]},{"header":{"parameterUnit":"m.s-1","parameterCategory":1,"la1":30.2991,"la2":30.254,"lo1":-89.0895,"lo2":-89.0444,"dy":0.0017,"dx":0.0017,"nx":28,"ny":28,"refTime":"2024-03-01T03:00:00:Z","depth":0,"parameterNumber":3,"parameterNumberName":"V-component_of_WINDS"},"data":[0,0,0,0,0,0,0,0,0,0,0,0,0,0,0,0,0,0,0,0,0,0,0,0,0,0,0,0,0,0,0,0,0,0,0,0,0,0,0,0,0,0,0,0,0,0,0,0,0,0,0,0,0,0,0,0,0,0,1.6203,1.6203,0,1.6239,1.624,1.624,1.6259,1.6259,1.6259,1.6259,1.6296,1.6297,1.6298,0,0,0,0,0,0,0,0,0,0,0,0,0,1.6147,1.6148,1.6203,1.6203,1.6203,1.6239,1.624,1.624,1.6259,1.6259,1.6259,1.626,1.6295,1.6297,1.6298,0,0,0,0,0,0,0,0,0,0,0,0,0,1.6176,1.6148,1.6202,1.6217,1.6219,1.6239,1.624,1.6241,1.6259,1.6259,1.6259,1.626,1.6295,1.6296,1.6298,1.6306,0,0,1.6302,1.6303,0,0,0,0,0,0,0,0,1.6175,1.6178,1.6215,1.6216,1.6218,1.6245,1.6234,1.6262,1.6259,1.6244,1.6259,1.626,1.6279,1.6281,1.6288,1.6307,1.6309,1.6302,1.6303,1.6304,1.6304,0,0,0,0,0,0,0,1.6173,1.6177,1.6217,1.6215,1.6217,1.6222,1.6226,1.6239,1.6261,1.6245,1.6247,1.6251,1.628,1.6287,1.6289,1.6309,1.6302,1.6303,1.6304,1.6305,1.6337,1.6337,0,0,0,0,0,0,1.6168,1.6175,1.6216,1.6218,1.6196,1.6223,1.6227,1.6236,1.6261,1.6264,1.6251,1.6252,1.6284,1.6288,1.6291,1.6302,1.6304,1.6305,1.6306,1.6337,1.6337,1.6337,0,0,0,0,0,0,1.6167,1.6172,1.6214,1.6197,1.6203,1.6224,1.6233,1.6237,1.6244,1.6265,1.6269,1.6254,1.6285,1.6289,1.6302,1.6303,1.6306,1.6307,1.6337,1.6337,1.6337,1.6324,0,0,0,0,0,0,1.6165,1.6171,1.6175,1.6197,1.6204,1.6226,1.6234,1.6238,1.6247,1.6248,1.6269,1.6273,1.6285,1.63,1.6303,1.6305,1.6308,1.6337,1.6337,1.6337,1.6324,1.6323,1.6322,0,0,0,0,0,1.6163,1.6169,1.6175,1.618,1.6209,1.6226,1.6229,1.6244,1.6247,1.625,1.6264,1.6272,1.6302,1.6301,1.6305,1.6307,1.6337,1.6337,1.6337,1.6324,1.6323,1.6322,0,0,0,0,0,0,1.6146,1.6172,1.6179,1.6192,1.6207,1.6229,1.6234,1.6242,1.6256,1.6256,1.6274,1.6278,1.629,1.63,1.6298,1.6316,1.6321,1.6321,1.6309,1.6309,1.6308,1.6305,1.6309,0,0,0,0,0,1.6144,1.6156,1.6178,1.6187,1.6194,1.6213,1.6221,1.6231,1.6246,1.6252,1.6266,1.6281,1.6293,1.6302,1.6314,1.6325,1.633,1.6329,1.6328,1.6327,1.6328,1.6335,1.6335,1.6337,1.6337,1.6337,0,0,1.6139,1.6155,1.6161,1.6184,1.6197,1.6208,1.6218,1.623,1.6239,1.6254,1.6268,1.6278,1.6295,1.6308,1.6314,1.6316,1.6328,1.6327,1.6327,1.6328,1.6335,1.6335,1.6334,1.6337,1.6337,1.6337,0,0,1.6137,1.615,1.6159,1.6172,1.6191,1.6203,1.6205,1.6226,1.6234,1.6248,1.626,1.627,1.6292,1.6304,1.6313,1.6315,1.6323,1.6318,1.6314,1.6321,1.632,1.632,1.6321,1.6321,1.6319,1.6319,1.6319,0,1.6128,1.6147,1.6163,1.6175,1.6184,1.6199,1.6209,1.622,1.6241,1.6248,1.625,1.6278,1.6291,1.6306,1.6307,1.6313,1.6316,1.6316,1.6319,1.6319,1.6319,1.632,1.6321,1.6318,1.6318,1.6318,1.6318,0,1.6136,1.6149,1.6154,1.6176,1.6186,1.6196,1.6213,1.6222,1.6231,1.6242,1.6257,1.6272,1.6289,1.6293,1.6302,1.631,1.6311,1.6316,1.6321,1.6318,1.632,1.632,1.6317,1.6318,1.6318,1.6318,0,0,1.6124,1.6154,1.6156,1.6166,1.6187,1.6197,1.6208,1.6225,1.6232,1.6246,1.6256,1.6274,1.6279,1.6289,1.6299,1.6305,1.6306,1.631,1.631,1.6309,1.6316,1.6312,1.6312,1.6312,1.6312,1.6312,1.6314,0,1.6125,1.6146,1.616,1.6176,1.6187,1.6202,1.6211,1.6225,1.6237,1.6248,1.626,1.6273,1.6279,1.6285,1.6291,1.6305,1.6308,1.6305,1.632,1.6321,1.6316,1.6313,1.6308,1.631,1.6315,1.6315,1.6315,0,1.6129,1.6143,1.616,1.618,1.6186,1.6194,1.6211,1.6222,1.6238,1.6246,1.6257,1.6268,1.628,1.6283,1.63,1.6297,1.6304,1.6312,1.6312,1.6314,1.6318,1.6315,1.6311,1.6311,1.6316,1.6316,1.6316,0,1.6118,1.6142,1.6155,1.6163,1.6187,1.6193,1.6203,1.622,1.6229,1.6243,1.6249,1.6264,1.6273,1.6284,1.6298,1.6299,1.6314,1.6318,1.632,1.632,1.6323,1.6322,1.632,1.6327,1.6327,1.6327,1.6327,0,1.6118,1.6127,1.6151,1.6159,1.617,1.6186,1.6197,1.6208,1.6223,1.6233,1.6246,1.6255,1.6273,1.6285,1.6296,1.6308,1.6312,1.6318,1.6321,1.6317,1.6316,1.6322,1.6323,1.6327,1.6327,1.6327,1.6327,0,1.6108,1.6124,1.6139,1.6161,1.6167,1.6174,1.6193,1.6201,1.6213,1.6226,1.623,1.6249,1.6263,1.6278,1.6297,1.6305,1.6316,1.632,1.6311,1.6313,1.6314,1.6314,1.6316,1.6317,1.6323,1.6323,1.6323,0,1.6107,1.6115,1.6138,1.6146,1.6156,1.6169,1.6178,1.6195,1.6204,1.6223,1.6229,1.6244,1.6257,1.6279,1.6294,1.6309,1.6314,1.6313,1.6316,1.6312,1.6314,1.6313,1.6314,1.6312,1.6312,1.6312,1.6312,0,1.6103,1.6111,1.6124,1.614,1.6152,1.6165,1.6179,1.6185,1.6204,1.6213,1.6228,1.6238,1.6258,1.6273,1.629,1.63,1.6309,1.6311,1.6313,1.6309,1.6303,1.6306,1.6309,1.6311,1.6311,1.6311,1.6311,1.6311,1.6098,1.6106,1.6123,1.6138,1.615,1.6163,1.6171,1.6185,1.6197,1.6215,1.6224,1.6239,1.6255,1.6278,1.6289,1.63,1.6303,1.6305,1.6305,1.6306,1.6305,1.6301,1.6303,1.6303,1.6303,1.6303,1.6303,0,1.6095,1.6107,1.612,1.6139,1.6151,1.6159,1.6175,1.6183,1.6196,1.6211,1.6224,1.6241,1.6255,1.6272,1.6287,1.6294,1.6298,1.6297,1.6297,1.6299,1.6301,1.6299,1.6293,1.6293,1.6293,1.6293,1.6293,1.6293,1.6095,1.6108,1.6118,1.6137,1.6149,1.6164,1.6173,1.6184,1.6196,1.6215,1.6227,1.6238,1.6253,1.627,1.6284,1.6288,1.6293,1.6291,1.6297,1.6298,1.6299,1.63,1.6297,1.6292,1.6292,1.6294,1.6294,1.6294]}]]